QPF
0.00 0.00 0.00 0.00 0.00 0.00 0.00 0.01 0.01 0.02 0.01 0.01 0.01 0.01 0.01 0.01 0.00 0.00 0.00 0.00 0.00 0.01 0.01 0.01 0.01 0.01 0.01 0.01 0.01 0.01 0.01 0.01 0.01 0.01 0.02 0.02 0.02 0.02 0.01 0.01 0.01 0.01 0.01
0.00 0.00 0.00 0.00 0.00 0.01 0.01 0.01 0.01 0.01 0.01 0.01 0.00 0.01 0.01 0.01 0.00 0.00 0.00 0.00 0.00 0.00 0.01 0.01 0.01 0.01 0.01 0.02 0.02 0.02 0.02 0.01 0.01 0.01 0.01 0.03 0.03 0.02 0.01 0.01 0.01 0.01 0.02
0.00 0.00 0.00 0.00 0.01 0.01 0.01 0.01 0.01 0.01 0.01 0.01 0.01 0.01 0.01 0.01 0.01 0.01 0.01 0.00 0.01 0.01 0.01 0.01 0.01 0.01 0.01 0.02 0.02 0.01 0.02 0.01 0.01 0.01 0.01 0.01 0.01 0.01 0.01 0.01 0.01 0.01 0.01
0.00 0.00 0.00 0.00 0.01 0.01 0.01 0.02 0.01 0.01 0.00 0.01 0.01 0.01 0.01 0.01 0.01 0.01 0.00 0.01 0.01 0.01 0.01 0.01 0.01 0.01 0.01 0.01 0.01 0.01 0.01 0.01 0.00 0.00 0.01 0.01 0.01 0.01 0.01 0.01 0.01 0.01 0.01
0.00 0.00 0.00 0.00 0.01 0.01 0.01 0.02 0.02 0.01 0.01 0.01 0.01 0.01 0.01 0.01 0.01 0.01 0.01 0.01 0.01 0.00 0.00 0.00 0.00 0.00 0.00 0.00 0.00 0.00 0.00 0.00 0.00 0.00 0.00 0.01 0.01 0.01 0.01 0.01 0.01 0.00 0.01
0.00 0.00 0.00 0.00 0.01 0.01 0.01 0.01 0.02 0.02 0.01 0.02 0.01 0.01 0.01 0.01 0.01 0.01 0.01 0.01 0.00 0.00 0.00 0.00 0.00 0.00 0.00 0.00 0.00 0.00 0.00 0.00 0.00 0.00 0.00 0.00 0.00 0.00 0.00 0.00 0.00 0.00 0.00
0.00 0.00 0.00 0.00 0.01 0.01 0.01 0.01 0.01 0.02 0.02 0.02 0.02 0.01 0.01 0.01 0.01 0.01 0.00 0.00 0.00 0.00 0.00 0.00 0.00 0.00 0.00 0.00 0.00 0.00 0.00 0.00 0.00 0.00 0.00 0.00 0.00 0.00 0.00 0.00 0.00 0.00 0.00
0.00 0.00 0.00 0.01 0.01 0.01 0.01 0.01 0.01 0.02 0.02 0.02 0.02 0.01 0.01 0.01 0.01 0.01 0.00 0.00 0.00 0.00 0.00 0.00 0.00 0.00 0.00 0.00 0.00 0.00 0.00 0.00 0.00 0.00 0.00 0.00 0.00 0.00 0.00 0.00 0.00 0.00 0.00
0.00 0.00 0.00 0.01 0.01 0.01 0.01 0.01 0.01 0.02 0.02 0.02 0.02 0.01 0.01 0.01 0.01 0.01 0.00 0.00 0.00 0.00 0.00 0.00 0.00 0.00 0.00 0.00 0.00 0.00 0.00 0.00 0.00 0.00 0.00 0.00 0.00 0.00 0.00 0.00 0.00 0.00 0.00
0.00 0.00 0.00 0.01 0.01 0.01 0.01 0.01 0.01 0.02 0.02 0.02 0.03 0.03 0.02 0.01 0.01 0.01 0.00 0.00 0.00 0.00 0.00 0.00 0.00 0.00 0.00 0.00 0.00 0.00 0.00 0.00 0.00 0.00 0.00 0.00 0.00 0.00 0.00 0.00 0.00 0.00 0.00
0.00 0.00 0.00 0.01 0.01 0.01 0.01 0.01 0.02 0.02 0.02 0.02 0.02 0.03 0.02 0.01 0.01 0.00 0.00 0.00 0.00 0.00 0.00 0.00 0.00 0.00 0.00 0.00 0.00 0.00 0.00 0.00 0.00 0.00 0.00 0.00 0.00 0.00 0.00 0.00 0.00 0.00 0.00
0.00 0.00 0.00 0.01 0.00 0.01 0.01 0.01 0.02 0.02 0.02 0.02 0.02 0.02 0.02 0.01 0.01 0.00 0.00 0.00 0.00 0.00 0.00 0.00 0.00 0.00 0.00 0.00 0.00 0.00 0.00 0.00 0.00 0.00 0.00 0.00 0.00 0.00 0.00 0.00 0.00 0.00 0.00
0.00 0.00 0.00 0.01 0.00 0.01 0.01 0.02 0.02 0.02 0.03 0.02 0.02 0.02 0.02 0.01 0.01 0.00 0.00 0.00 0.00 0.00 0.00 0.00 0.00 0.00 0.00 0.00 0.00 0.00 0.00 0.00 0.00 0.00 0.00 0.00 0.00 0.00 0.00 0.00 0.00 0.00 0.00
0.00 0.00 0.00 0.01 0.01 0.00 0.01 0.02 0.02 0.03 0.03 0.03 0.03 0.02 0.02 0.01 0.01 0.00 0.00 0.00 0.00 0.00 0.00 0.00 0.00 0.00 0.00 0.00 0.00 0.00 0.00 0.00 0.00 0.00 0.00 0.00 0.00 0.00 0.00 0.00 0.00 0.00 0.00
0.00 0.00 0.01 0.01 0.01 0.01 0.01 0.03 0.03 0.03 0.03 0.04 0.03 0.02 0.01 0.01 0.00 0.00 0.00 0.00 0.00 0.00 0.00 0.00 0.00 0.00 0.00 0.00 0.00 0.00 0.00 0.00 0.00 0.00 0.00 0.00 0.00 0.00 0.00 0.00 0.00 0.00 0.00
0.00 0.00 0.01 0.01 0.01 0.01 0.01 0.03 0.05 0.04 0.05 0.06 0.06 0.04 0.01 0.00 0.00 0.00 0.00 0.00 0.00 0.00 0.00 0.00 0.00 0.00 0.00 0.00 0.00 0.00 0.00 0.00 0.00 0.00 0.00 0.00 0.00 0.00 0.00 0.00 0.00 0.00 0.00
0.00 0.00 0.00 0.01 0.01 0.01 0.01 0.02 0.05 0.05 0.06 0.07 0.08 0.06 0.03 0.00 0.00 0.00 0.00 0.00 0.00 0.00 0.00 0.00 0.00 0.00 0.00 0.00 0.00 0.00 0.00 0.00 0.00 0.00 0.00 0.00 0.00 0.00 0.00 0.00 0.00 0.00 0.00
0.00 0.00 0.00 0.00 0.01 0.01 0.01 0.02 0.04 0.06 0.06 0.06 0.08 0.08 0.05 0.01 0.00 0.00 0.00 0.00 0.00 0.00 0.00 0.00 0.00 0.00 0.00 0.00 0.00 0.00 0.00 0.00 0.00 0.00 0.00 0.00 0.00 0.00 0.00 0.00 0.00 0.00 0.00
0.00 0.00 0.00 0.00 0.01 0.01 0.01 0.02 0.03 0.06 0.07 0.06 0.08 0.09 0.07 0.03 0.00 0.00 0.00 0.00 0.00 0.00 0.00 0.00 0.00 0.00 0.00 0.00 0.00 0.00 0.00 0.00 0.00 0.00 0.00 0.00 0.00 0.00 0.00 0.00 0.00 0.00 0.00
0.00 0.00 0.00 0.00 0.01 0.01 0.01 0.02 0.04 0.05 0.06 0.07 0.06 0.07 0.07 0.04 0.01 0.00 0.00 0.00 0.00 0.00 0.00 0.00 0.00 0.00 0.00 0.00 0.01 0.01 0.00 0.00 0.00 0.00 0.00 0.00 0.00 0.00 0.00 0.00 0.00 0.00 0.00
0.00 0.00 0.01 0.01 0.01 0.01 0.01 0.02 0.03 0.04 0.05 0.06 0.06 0.05 0.05 0.04 0.01 0.01 0.00 0.00 0.00 0.00 0.00 0.00 0.00 0.01 0.01 0.01 0.01 0.01 0.00 0.00 0.00 0.00 0.00 0.00 0.00 0.00 0.00 0.00 0.00 0.00 0.00
0.00 0.00 0.00 0.01 0.01 0.01 0.01 0.01 0.02 0.03 0.05 0.05 0.05 0.05 0.05 0.03 0.01 0.01 0.01 0.00 0.00 0.01 0.00 0.01 0.01 0.01 0.01 0.01 0.01 0.01 0.00 0.00 0.00 0.00 0.00 0.00 0.00 0.00 0.00 0.00 0.00 0.00 0.00
0.00 0.00 0.00 0.00 0.01 0.01 0.01 0.02 0.03 0.04 0.05 0.05 0.05 0.05 0.05 0.03 0.02 0.01 0.01 0.01 0.01 0.01 0.01 0.01 0.00 0.01 0.02 0.01 0.01 0.01 0.01 0.00 0.00 0.00 0.00 0.00 0.00 0.00 0.00 0.00 0.00 0.00 0.00
0.00 0.00 0.00 0.00 0.01 0.02 0.01 0.01 0.03 0.03 0.05 0.04 0.04 0.04 0.04 0.03 0.03 0.02 0.01 0.01 0.01 0.01 0.01 0.01 0.00 0.01 0.01 0.01 0.00 0.00 0.00 0.01 0.01 0.01 0.00 0.00 0.00 0.00 0.00 0.00 0.00 0.00 0.00
0.00 0.00 0.00 0.01 0.01 0.02 0.01 0.01 0.02 0.03 0.04 0.04 0.03 0.03 0.04 0.03 0.03 0.02 0.01 0.01 0.01 0.01 0.01 0.01 0.00 0.01 0.00 0.00 0.00 0.00 0.00 0.00 0.00 0.01 0.00 0.00 0.00 0.00 0.00 0.00 0.00 0.00 0.00
0.00 0.00 0.00 0.01 0.01 0.01 0.01 0.01 0.01 0.03 0.03 0.03 0.03 0.02 0.03 0.03 0.03 0.03 0.02 0.01 0.01 0.01 0.01 0.01 0.01 0.01 0.00 0.00 0.00 0.00 0.00 0.00 0.00 0.00 0.00 0.00 0.00 0.00 0.00 0.00 0.00 0.00 0.00
MSLP
1010.30 1010.33 1010.50 1010.81 1011.21 1011.63 1012.03 1012.35 1012.56 1012.67 1012.71 1012.72 1012.76 1012.85 1013.00 1013.21 1013.44 1013.64 1013.79 1013.88 1013.91 1013.89 1013.88 1013.88 1013.92 1014.01 1014.13 1014.24 1014.32 1014.36 1014.33 1014.26 1014.16 1014.05 1013.96 1013.91 1013.88 1013.87 1013.86 1013.84 1013.79 1013.73 1013.65
1009.95 1010.04 1010.29 1010.68 1011.15 1011.63 1012.06 1012.38 1012.59 1012.69 1012.73 1012.75 1012.82 1012.95 1013.16 1013.41 1013.67 1013.90 1014.07 1014.16 1014.19 1014.18 1014.17 1014.18 1014.24 1014.33 1014.44 1014.54 1014.60 1014.61 1014.55 1014.45 1014.34 1014.22 1014.14 1014.10 1014.08 1014.08 1014.08 1014.05 1014.00 1013.92 1013.84
1009.49 1009.67 1010.02 1010.50 1011.05 1011.59 1012.06 1012.40 1012.62 1012.73 1012.78 1012.83 1012.93 1013.10 1013.33 1013.61 1013.89 1014.12 1014.28 1014.37 1014.39 1014.38 1014.38 1014.41 1014.48 1014.59 1014.70 1014.79 1014.83 1014.81 1014.73 1014.61 1014.48 1014.37 1014.30 1014.27 1014.27 1014.29 1014.29 1014.27 1014.22 1014.15 1014.07
1008.98 1009.26 1009.71 1010.29 1010.91 1011.51 1012.02 1012.39 1012.62 1012.75 1012.83 1012.90 1013.03 1013.23 1013.48 1013.76 1014.03 1014.25 1014.39 1014.46 1014.48 1014.48 1014.50 1014.56 1014.66 1014.78 1014.91 1014.99 1015.02 1014.97 1014.87 1014.74 1014.60 1014.50 1014.44 1014.43 1014.45 1014.49 1014.51 1014.50 1014.45 1014.38 1014.31
1008.47 1008.85 1009.40 1010.06 1010.75 1011.39 1011.92 1012.32 1012.57 1012.72 1012.82 1012.93 1013.08 1013.29 1013.55 1013.82 1014.06 1014.25 1014.37 1014.43 1014.45 1014.47 1014.52 1014.62 1014.76 1014.92 1015.07 1015.16 1015.18 1015.12 1015.00 1014.86 1014.72 1014.62 1014.57 1014.58 1014.62 1014.67 1014.70 1014.71 1014.68 1014.62 1014.56
1008.05 1008.51 1009.12 1009.84 1010.56 1011.22 1011.77 1012.17 1012.44 1012.60 1012.73 1012.87 1013.04 1013.26 1013.51 1013.77 1013.99 1014.15 1014.24 1014.29 1014.33 1014.38 1014.48 1014.63 1014.82 1015.02 1015.19 1015.29 1015.31 1015.25 1015.13 1014.97 1014.84 1014.74 1014.70 1014.72 1014.77 1014.83 1014.88 1014.89 1014.87 1014.83 1014.79
1007.77 1008.27 1008.92 1009.64 1010.37 1011.02 1011.55 1011.94 1012.21 1012.40 1012.55 1012.71 1012.91 1013.14 1013.39 1013.63 1013.83 1013.96 1014.05 1014.10 1014.16 1014.25 1014.40 1014.60 1014.84 1015.08 1015.27 1015.39 1015.41 1015.35 1015.22 1015.07 1014.94 1014.85 1014.82 1014.84 1014.90 1014.96 1015.01 1015.03 1015.02 1015.00 1014.99
1007.65 1008.16 1008.80 1009.49 1010.17 1010.78 1011.27 1011.64 1011.90 1012.10 1012.28 1012.48 1012.70 1012.95 1013.21 1013.44 1013.63 1013.76 1013.84 1013.91 1013.99 1014.12 1014.31 1014.56 1014.83 1015.09 1015.30 1015.43 1015.45 1015.39 1015.26 1015.12 1015.00 1014.92 1014.90 1014.93 1014.99 1015.05 1015.10 1015.12 1015.12 1015.12 1015.12
1007.65 1008.13 1008.72 1009.34 1009.95 1010.49 1010.92 1011.26 1011.52 1011.73 1011.94 1012.18 1012.44 1012.72 1012.99 1013.24 1013.43 1013.56 1013.66 1013.75 1013.85 1014.01 1014.23 1014.50 1014.78 1015.05 1015.25 1015.37 1015.39 1015.33 1015.21 1015.09 1014.98 1014.93 1014.93 1014.97 1015.03 1015.09 1015.13 1015.15 1015.15 1015.16 1015.19
1007.67 1008.10 1008.61 1009.16 1009.68 1010.14 1010.52 1010.82 1011.08 1011.31 1011.55 1011.83 1012.13 1012.45 1012.75 1013.01 1013.23 1013.38 1013.50 1013.60 1013.73 1013.91 1014.14 1014.40 1014.68 1014.92 1015.10 1015.20 1015.21 1015.15 1015.04 1014.94 1014.87 1014.84 1014.87 1014.93 1015.00 1015.07 1015.11 1015.12 1015.12 1015.13 1015.16
1007.60 1007.97 1008.40 1008.87 1009.31 1009.70 1010.03 1010.31 1010.57 1010.83 1011.11 1011.43 1011.78 1012.13 1012.47 1012.76 1013.00 1013.18 1013.32 1013.45 1013.60 1013.78 1014.00 1014.24 1014.49 1014.69 1014.84 1014.90 1014.89 1014.83 1014.74 1014.67 1014.64 1014.66 1014.72 1014.81 1014.90 1014.97 1015.01 1015.02 1015.02 1015.02 1015.06
1007.34 1007.65 1008.02 1008.41 1008.79 1009.14 1009.44 1009.72 1010.00 1010.28 1010.61 1010.96 1011.35 1011.74 1012.10 1012.43 1012.69 1012.91 1013.08 1013.23 1013.40 1013.58 1013.78 1013.99 1014.19 1014.35 1014.45 1014.48 1014.45 1014.39 1014.33 1014.29 1014.30 1014.36 1014.47 1014.59 1014.70 1014.79 1014.84 1014.85 1014.84 1014.84 1014.87
1006.81 1007.08 1007.41 1007.76 1008.11 1008.44 1008.75 1009.04 1009.34 1009.66 1010.02 1010.41 1010.81 1011.22 1011.61 1011.96 1012.25 1012.50 1012.71 1012.89 1013.07 1013.26 1013.45 1013.64 1013.80 1013.91 1013.97 1013.98 1013.94 1013.88 1013.84 1013.84 1013.88 1013.98 1014.12 1014.28 1014.42 1014.53 1014.59 1014.61 1014.61 1014.60 1014.63
1006.03 1006.26 1006.56 1006.90 1007.25 1007.59 1007.93 1008.26 1008.60 1008.96 1009.34 1009.74 1010.16 1010.57 1010.96 1011.32 1011.64 1011.92 1012.17 1012.39 1012.60 1012.81 1013.00 1013.18 1013.32 1013.41 1013.45 1013.44 1013.40 1013.36 1013.33 1013.35 1013.43 1013.55 1013.72 1013.89 1014.06 1014.19 1014.27 1014.30 1014.31 1014.31 1014.32
1005.04 1005.25 1005.54 1005.88 1006.25 1006.64 1007.02 1007.40 1007.78 1008.17 1008.57 1008.97 1009.38 1009.78 1010.16 1010.53 1010.86 1011.17 1011.46 1011.73 1011.99 1012.23 1012.45 1012.64 1012.79 1012.88 1012.93 1012.92 1012.90 1012.87 1012.86 1012.89 1012.97 1013.10 1013.27 1013.45 1013.62 1013.76 1013.86 1013.92 1013.95 1013.96 1013.98
1003.96 1004.15 1004.43 1004.78 1005.19 1005.62 1006.06 1006.49 1006.92 1007.34 1007.74 1008.13 1008.51 1008.89 1009.25 1009.61 1009.96 1010.30 1010.63 1010.95 1011.26 1011.56 1011.83 1012.06 1012.24 1012.37 1012.44 1012.47 1012.47 1012.45 1012.45 1012.48 1012.55 1012.66 1012.81 1012.97 1013.13 1013.27 1013.39 1013.47 1013.52 1013.56 1013.59
1002.94 1003.09 1003.35 1003.71 1004.14 1004.61 1005.10 1005.59 1006.06 1006.50 1006.90 1007.28 1007.63 1007.97 1008.31 1008.65 1009.01 1009.37 1009.74 1010.12 1010.49 1010.85 1011.18 1011.47 1011.71 1011.89 1012.01 1012.08 1012.11 1012.12 1012.12 1012.14 1012.18 1012.24 1012.34 1012.46 1012.59 1012.72 1012.85 1012.95 1013.04 1013.10 1013.15
1002.11 1002.20 1002.42 1002.76 1003.19 1003.69 1004.22 1004.75 1005.25 1005.70 1006.11 1006.46 1006.79 1007.10 1007.41 1007.74 1008.09 1008.48 1008.89 1009.31 1009.74 1010.15 1010.54 1010.89 1011.19 1011.43 1011.61 1011.74 1011.81 1011.84 1011.85 1011.84 1011.84 1011.84 1011.88 1011.94 1012.02 1012.13 1012.25 1012.37 1012.48 1012.58 1012.65
1001.56 1001.57 1001.72 1002.01 1002.42 1002.91 1003.45 1004.00 1004.51 1004.98 1005.38 1005.73 1006.03 1006.32 1006.61 1006.93 1007.28 1007.68 1008.11 1008.56 1009.03 1009.48 1009.91 1010.31 1010.66 1010.96 1011.20 1011.39 1011.51 1011.57 1011.58 1011.55 1011.50 1011.44 1011.40 1011.39 1011.42 1011.49 1011.59 1011.72 1011.86 1011.98 1012.09
1001.32 1001.24 1001.30 1001.50 1001.84 1002.30 1002.81 1003.35 1003.87 1004.34 1004.74 1005.08 1005.37 1005.64 1005.93 1006.24 1006.59 1006.99 1007.43 1007.89 1008.37 1008.84 1009.29 1009.71 1010.10 1010.44 1010.73 1010.97 1011.13 1011.23 1011.25 1011.21 1011.12 1011.01 1010.91 1010.83 1010.80 1010.82 1010.90 1011.03 1011.18 1011.33 1011.46
1001.38 1001.20 1001.14 1001.23 1001.48 1001.85 1002.31 1002.80 1003.30 1003.75 1004.15 1004.48 1004.77 1005.04 1005.33 1005.64 1005.99 1006.39 1006.82 1007.28 1007.74 1008.19 1008.63 1009.05 1009.45 1009.82 1010.14 1010.42 1010.63 1010.76 1010.82 1010.78 1010.68 1010.54 1010.38 1010.24 1010.16 1010.14 1010.19 1010.30 1010.46 1010.62 1010.77
1001.67 1001.38 1001.20 1001.16 1001.27 1001.53 1001.90 1002.33 1002.77 1003.19 1003.57 1003.89 1004.18 1004.46 1004.75 1005.06 1005.42 1005.81 1006.22 1006.66 1007.08 1007.50 1007.91 1008.30 1008.69 1009.06 1009.40 1009.71 1009.97 1010.15 1010.24 1010.24 1010.15 1010.00 1009.82 1009.64 1009.52 1009.46 1009.48 1009.57 1009.72 1009.89 1010.06
1002.09 1001.71 1001.40 1001.21 1001.18 1001.30 1001.55 1001.88 1002.24 1002.61 1002.95 1003.25 1003.54 1003.82 1004.11 1004.44 1004.79 1005.17 1005.57 1005.97 1006.36 1006.73 1007.09 1007.44 1007.79 1008.15 1008.50 1008.84 1009.14 1009.37 1009.52 1009.57 1009.52 1009.39 1009.22 1009.04 1008.89 1008.80 1008.80 1008.87 1009.00 1009.17 1009.35
1002.52 1002.06 1001.64 1001.32 1001.13 1001.10 1001.21 1001.42 1001.68 1001.97 1002.26 1002.53 1002.80 1003.07 1003.37 1003.69 1004.05 1004.42 1004.80 1005.17 1005.52 1005.85 1006.16 1006.47 1006.78 1007.11 1007.47 1007.82 1008.16 1008.45 1008.67 1008.79 1008.81 1008.74 1008.60 1008.44 1008.29 1008.19 1008.16 1008.21 1008.33 1008.49 1008.67
1002.87 1002.35 1001.83 1001.39 1001.07 1000.89 1000.86 1000.94 1001.10 1001.29 1001.51 1001.73 1001.96 1002.21 1002.50 1002.82 1003.17 1003.54 1003.91 1004.26 1004.59 1004.88 1005.15 1005.41 1005.70 1006.01 1006.36 1006.73 1007.10 1007.45 1007.74 1007.94 1008.04 1008.04 1007.97 1007.85 1007.72 1007.63 1007.59 1007.62 1007.72 1007.87 1008.05
1003.04 1002.48 1001.90 1001.36 1000.93 1000.64 1000.48 1000.45 1000.50 1000.60 1000.73 1000.89 1001.07 1001.28 1001.54 1001.84 1002.19 1002.55 1002.92 1003.26 1003.57 1003.85 1004.10 1004.34 1004.59 1004.89 1005.23 1005.61 1006.02 1006.42 1006.77 1007.06 1007.24 1007.33 1007.33 1007.28 1007.19 1007.11 1007.07 1007.09 1007.17 1007.32 1007.50
Thickness
5785 5783 5779 5775 5772 5769 5766 5764 5762 5759 5756 5754 5752 5750 5748 5747 5745 5744 5742 5741 5740 5739 5737 5736 5734 5733 5731 5729 5727 5726 5724 5722 5721 5719 5718 5717 5715 5714 5712 5711 5710 5708 5706
5788 5783 5777 5774 5770 5767 5764 5762 5759 5757 5754 5752 5750 5748 5746 5744 5742 5741 5740 5738 5737 5736 5734 5733 5731 5729 5727 5726 5724 5722 5720 5719 5717 5716 5714 5713 5711 5710 5708 5706 5705 5703 5702
5786 5781 5775 5771 5768 5765 5762 5759 5757 5754 5752 5750 5748 5746 5744 5742 5740 5739 5737 5736 5734 5733 5731 5730 5728 5726 5724 5722 5720 5718 5717 5715 5714 5712 5711 5709 5707 5705 5703 5702 5700 5699 5697
5784 5778 5773 5769 5766 5762 5760 5757 5754 5752 5750 5747 5745 5743 5741 5739 5738 5736 5734 5733 5731 5729 5728 5726 5724 5722 5720 5718 5717 5715 5713 5712 5711 5710 5708 5705 5703 5701 5699 5697 5695 5694 5692
5781 5776 5771 5766 5763 5760 5757 5754 5752 5749 5747 5745 5743 5741 5739 5737 5735 5733 5731 5729 5728 5726 5724 5722 5720 5718 5717 5715 5713 5711 5709 5708 5707 5706 5704 5701 5699 5697 5695 5693 5691 5689 5687
5777 5774 5768 5763 5760 5757 5754 5752 5749 5747 5744 5742 5740 5738 5736 5734 5732 5730 5728 5726 5724 5722 5720 5718 5717 5714 5713 5711 5709 5707 5706 5704 5703 5702 5700 5697 5695 5693 5691 5689 5686 5684 5683
5774 5771 5764 5760 5757 5754 5751 5749 5746 5744 5741 5739 5737 5735 5733 5731 5729 5727 5725 5723 5721 5719 5717 5715 5713 5711 5709 5707 5705 5703 5702 5701 5700 5698 5696 5693 5691 5689 5687 5685 5682 5680 5678
5771 5768 5761 5757 5754 5751 5748 5746 5743 5741 5738 5736 5734 5732 5730 5728 5726 5724 5722 5720 5718 5716 5714 5712 5709 5707 5705 5703 5701 5700 5698 5697 5696 5695 5692 5689 5687 5685 5683 5680 5678 5676 5674
5768 5764 5758 5754 5750 5748 5745 5743 5740 5738 5735 5733 5731 5729 5728 5725 5723 5721 5719 5716 5714 5712 5710 5708 5706 5704 5702 5700 5698 5696 5695 5694 5693 5691 5688 5685 5683 5681 5678 5676 5674 5671 5669
5763 5760 5755 5751 5748 5745 5742 5740 5737 5735 5732 5730 5728 5726 5725 5722 5720 5718 5715 5713 5711 5709 5707 5705 5703 5701 5698 5696 5695 5693 5692 5691 5689 5687 5685 5681 5679 5676 5674 5672 5669 5667 5665
5756 5755 5753 5749 5746 5743 5740 5737 5734 5731 5729 5727 5725 5723 5721 5719 5716 5714 5712 5710 5708 5706 5704 5701 5699 5697 5695 5693 5691 5690 5688 5687 5686 5684 5681 5678 5676 5673 5670 5668 5665 5663 5660
5748 5750 5750 5748 5744 5741 5738 5735 5731 5728 5726 5724 5723 5721 5718 5716 5714 5712 5710 5707 5705 5702 5700 5698 5696 5694 5692 5690 5688 5687 5685 5685 5683 5681 5678 5675 5672 5669 5667 5664 5661 5658 5656
5746 5747 5747 5745 5743 5740 5737 5733 5730 5727 5724 5722 5721 5719 5716 5714 5712 5710 5707 5704 5701 5699 5696 5695 5693 5691 5689 5687 5686 5684 5683 5682 5681 5678 5675 5672 5669 5666 5663 5660 5658 5655 5652
5743 5743 5744 5743 5740 5737 5735 5732 5729 5726 5724 5722 5720 5718 5715 5713 5710 5708 5704 5701 5699 5696 5694 5692 5690 5688 5687 5686 5684 5682 5681 5680 5678 5675 5672 5669 5665 5662 5660 5657 5654 5651 5648
5739 5739 5739 5739 5737 5734 5732 5730 5728 5726 5723 5721 5720 5717 5715 5712 5709 5706 5703 5700 5697 5695 5692 5690 5688 5686 5685 5684 5682 5681 5679 5677 5675 5672 5669 5665 5662 5659 5656 5654 5651 5648 5645
5735 5735 5736 5735 5733 5731 5729 5727 5727 5725 5722 5720 5718 5716 5714 5711 5708 5704 5701 5698 5696 5693 5691 5688 5686 5685 5683 5681 5680 5678 5676 5674 5672 5669 5666 5662 5659 5656 5653 5650 5647 5644 5641
5732 5732 5731 5731 5730 5727 5725 5724 5724 5722 5720 5718 5716 5714 5712 5710 5706 5703 5699 5696 5694 5691 5689 5686 5684 5682 5680 5678 5676 5674 5672 5670 5668 5666 5663 5659 5656 5652 5649 5646 5643 5640 5637
5728 5727 5727 5726 5725 5723 5721 5720 5719 5718 5717 5715 5714 5711 5709 5707 5704 5700 5696 5693 5691 5689 5686 5682 5680 5677 5675 5672 5670 5669 5668 5666 5664 5662 5659 5656 5653 5649 5646 5643 5639 5636 5633
5723 5722 5721 5721 5719 5718 5717 5716 5715 5714 5713 5712 5710 5708 5706 5704 5701 5698 5694 5691 5688 5685 5682 5680 5676 5673 5670 5667 5665 5664 5663 5661 5659 5658 5655 5653 5650 5647 5643 5639 5636 5632 5629
5718 5718 5716 5715 5714 5713 5711 5710 5708 5708 5708 5707 5706 5705 5704 5700 5698 5695 5691 5688 5685 5681 5678 5675 5672 5669 5666 5663 5661 5659 5657 5656 5655 5653 5652 5649 5647 5644 5640 5636 5633 5628 5625
5711 5711 5710 5709 5708 5707 5704 5703 5702 5701 5702 5702 5702 5702 5700 5698 5696 5692 5689 5685 5682 5678 5675 5672 5668 5664 5661 5658 5653 5649 5650 5651 5651 5650 5648 5646 5643 5641 5637 5633 5629 5625 5621
5702 5704 5704 5704 5703 5702 5702 5701 5700 5698 5698 5698 5698 5698 5697 5695 5693 5690 5686 5682 5679 5676 5672 5669 5665 5660 5657 5654 5648 5642 5639 5642 5645 5647 5644 5642 5639 5636 5633 5630 5626 5622 5618
5693 5696 5699 5699 5699 5698 5697 5694 5692 5690 5689 5690 5691 5692 5692 5691 5690 5688 5684 5680 5677 5673 5669 5666 5663 5658 5653 5650 5648 5642 5637 5637 5638 5641 5641 5639 5635 5632 5629 5625 5621 5617 5613
5687 5690 5691 5693 5693 5693 5691 5688 5686 5685 5686 5689 5689 5688 5687 5687 5686 5684 5681 5678 5675 5671 5668 5665 5661 5657 5651 5647 5644 5643 5641 5640 5634 5632 5633 5633 5631 5628 5625 5621 5618 5613 5609
5680 5681 5683 5685 5686 5686 5685 5683 5681 5681 5683 5684 5683 5682 5682 5682 5681 5680 5678 5675 5672 5669 5666 5662 5658 5655 5651 5647 5643 5638 5635 5633 5631 5626 5624 5624 5623 5623 5621 5617 5613 5609 5604
5672 5673 5674 5675 5677 5679 5678 5678 5677 5676 5677 5676 5676 5676 5676 5676 5676 5675 5673 5671 5669 5666 5663 5660 5656 5652 5649 5646 5641 5637 5633 5629 5626 5622 5620 5617 5616 5616 5615 5612 5608 5604 5599